Regional Weather Roundup
Issued by NWS

Home | Current Version | Previous Version | Text Only | Print | Product List | Glossary On
Versions: 1 2 3 4 5 6 7 8 9 10 11 12 13 14 15 16 17 18 19 20 21 22 23 24 25 26 27 28 29 30 31 32 33 34 35 36 37 38 39 40 41 42 43 44 45 46 47 48 49 50
000
ASHW40 PHFO 031830
RWRHI

WEATHER ROUNDUP FOR HAWAII
NATIONAL WEATHER SERVICE HONOLULU HI
800 AM HST SUN MAY 03 2015

THIS IS AN AUTOMATED REPORT THAT HAS NOT BEEN QUALITY CONTROLLED.

NOTE..."FAIR" INDICATES FEW OR NO CLOUDS BELOW 12,000 FEET WITH NO
SIGNIFICANT WEATHER AND/OR OBSTRUCTIONS TO VISIBILITY.

* - THESE SITES REPORT LIMITED FIELDS

HIZ001>004-031900-
KAUAI-NIIHAU-

CITY           SKY/WX    TMP DP  RH WIND       PRES   REMARKS
LIHUE APT      PTSUNNY   76  63  64 E14       30.06R
PORT ALLEN*      N/A     73 N/A N/A NE13        N/A
POIPU*           N/A     75 N/A N/A NE9G18      N/A
PRINCEVILLE*     N/A     73 N/A N/A MISG        N/A
KOKOLE POINT*  NOT AVBL
MOLOAA DAIRY*  NOT AVBL
WAIMEA HTS*    NOT AVBL
PUU OPAE*      NOT AVBL
PUU LUA*       NOT AVBL
MAKAHA RIDGE*    N/A     72  61  68 CALM        N/A
$$

HIZ005>011-031900-
OAHU-

CITY           SKY/WX    TMP DP  RH WIND       PRES   REMARKS
HONOLULU       MOSUNNY   73  63  70 E12       30.03R
KALAELOA       SUNNY     76  60  57 VRB6      30.04R
KANEOHE MCB    SUNNY     76  62  62 E12G21    30.02R
WHEELER FIELD  FAIR      73  61  65 VRB6      30.04
BELLOWS*         N/A    N/A N/A N/A NE21        N/A
KAHUKU*          N/A    N/A N/A N/A NE10G21     N/A
WHEELER*       NOT AVBL
WAIANAE HARBOR NOT AVBL
DILLINGHAM*      N/A     79  61  53 MISG        N/A
KAHUKU TRN*      N/A     70  57  64 E9G21       N/A
KAWAILOA*        N/A     68  61  77 E12G20      N/A
KII*             N/A     75  64  69 E17G24      N/A
MAKUA RANGE*     N/A     79  57  47 E6G18       N/A
OAHU FOREST NW NOT AVBL
SCHOFIELD BRK*   N/A     61  48  63 MISG        N/A
SCHOFIELD S*   NOT AVBL
WAIANAE VLY*   NOT AVBL
KUAOKALA*      NOT AVBL
HONOULIUULI*   NOT AVBL
MOKUOLOE IS*     N/A    N/A N/A N/A MISG        N/A
PALEHUA*       NOT AVBL
WAIAWA PHB*    NOT AVBL
$$

HIZ012>013-031900-
MOLOKAI-

CITY           SKY/WX    TMP DP  RH WIND       PRES   REMARKS
MOLOKAI AIRPT  SUNNY     74  60  61 NE15G23   30.03R
KALAUPAPA      NOT AVBL
MAKAPULAPAI*   NOT AVBL
MOLOKAI 1*     NOT AVBL
PUU ALII*        N/A     55  50  84 CALM        N/A
$$

HIZ016-031900-
KAHOOLAWE-

CITY           SKY/WX    TMP DP  RH WIND       PRES   REMARKS
KAHOOLAWE*     NOT AVBL
HAKIOAWA*        N/A     75  64  67 MISG      30.46R
HONOKANAIA*      N/A     77  62  58 NE13G22   30.04R
KANELOA*         N/A     72  64  78 MISG      29.24R
KEALIALALO*      N/A    N/A N/A N/A E13G23    30.03R
LUA MAKIKA*    NOT AVBL
$$

HIZ014>015-031900-
LANAI-

CITY           SKY/WX    TMP DP  RH WIND       PRES   REMARKS
LANAI CITY     FAIR      72  60  66 NE16      30.06R
LANAI 1*       NOT AVBL
$$

HIZ017>028-031900-
MAUI-

CITY           SKY/WX    TMP DP  RH WIND       PRES   REMARKS
KAHULUI        MOSUNNY   76  63  64 NE10G21   30.04R
KAPALUA-W MAUI MOSUNNY   73  63  68 NE12G18   30.03R
HANA AIRPORT   PTSUNNY   75  64  69 E7        30.09R
HANA*            N/A     75 N/A N/A E8G14       N/A
HALEAKALA SUMM   N/A     46  -4  12 N13         N/A
MAALAEA BAY*   NOT AVBL
HALEAKALA*     NOT AVBL
KAUPO GAP*     NOT AVBL
KULA 1*          N/A     48  37  66 E3          N/A
$$

HIZ023>026-031900-
BIG ISLAND OF HAWAII COAST AND LOWER SLOPES-

CITY           SKY/WX    TMP DP  RH WIND       PRES   REMARKS
KAILUA KONA    SUNNY     79  60  52 NE10      29.99R
HILO           LGT RAIN  69  65  86 W8        30.05R
HONOKAA*       NOT AVBL
KAWAIHAE MWT*    N/A     77 N/A N/A NE5         N/A
KAWAIHAE*        N/A     79 N/A N/A NE6         N/A
SOUTH POINT*     N/A     68 N/A N/A NE17G25     N/A
UPOLU AIRPORT*   N/A    N/A N/A N/A E15G25      N/A
KAMUELA*       CLEAR     70  55  60 NE23      30.10R
HAKALAU*         N/A     50  50  99 E5          N/A
KALOKO-HONOKO*   N/A     81  63  54 NE3       29.98R
PALI 2*          N/A     64  55  72 NE15G22     N/A
KEALAKOMO*       N/A     73  63  68 NE12G18     N/A
KAUPULEHU*     NOT AVBL
KAPAPALA*        N/A     66  61  85 NE3         N/A
LOWER KAHUKU*    N/A     59  57  94 N3G13       N/A
PUHE CS*         N/A    N/A N/A N/A NE2         N/A
PUHO CS*         N/A     72  62  70 E3          N/A
PTA KEAMUKU*     N/A     64  52  63 CALM        N/A
WAIKOLOA*      NOT AVBL
$$

HIZ027>028-031900-
BIG ISLAND OF HAWAII INTERIOR AND SUMMMITS-

CITY           SKY/WX    TMP DP  RH WIND       PRES   REMARKS
BRADSHAW FIELD SUNNY     57  49  74 S8        30.27R
MK VISITOR CEN NOT AVBL
MAUNA KEA*       N/A     45 -20   6 CALM        N/A
MAUNA LOA*       N/A     52 -45   1 MISG        N/A
MAUNA LOA 1*   NOT AVBL
PTA KIPUKA*      N/A     61  45  55 SW3         N/A
PTA RANGE 17*    N/A     48  36  61 E7          N/A
PTA WEST*        N/A    N/A N/A N/A VRB8        N/A
NENE CABIN*      N/A     52  45  76 E6G12       N/A
AHUMOA*        NOT AVBL
PTA PORTABLE*  NOT AVBL
PUU MALI*        N/A     55  37  50 W10         N/A
$$

HIC003-031900-
NORTHWEST ISLANDS-

CITY           SKY/WX    TMP DP  RH WIND       PRES   REMARKS
MIDWAY ISLAND  SUNNY     70 N/A N/A CALM      30.04R
MIDWAY NOS*    NOT AVBL
FRENCH FRIGATE NOT AVBL
$$

PHZ110>124-180-031900-
BUOY REPORTS

STATION/POSITION TIME  TEMP    WIND        PRES    WAVE   SWELL
                       AIR SEA DIR/SP/G            HT/PER HT/DIR
                 (UTC) (F)     (DEG/KT/KT) (MB)    (FT/S) (FT/D)
BUOY 51001       NOT AVBL
BUOY 51101       1800   74 76  130/ 12/ 14 1017.9R   5/ 9   5/ 80
BUOY 51100       NOT AVBL
BUOY 51002       1800   78 79  100/ 16/ 19 1014.2R   8/ 9   7/ 80
BUOY 51003       1800   77 79   80/ 14/ 17 1015.4R   8/ 9   7
BUOY 51004       1651   77 77   60/ 14/ 16 1015.1R   8/ 9   7/ 60
BARBERS PT BUOY  NOT AVBL
WAIMEA BAY BUOY  1800      76                N/A     4/ 9   2/ 30
KAILUA BAY BUOY  1800      77                N/A     7/ 9   2/ 80
LANAI BUOY       NOT AVBL
BARBERS PT 2     1800      77                N/A     4/ 7   2/180
PAUWELA MAUI     1800      76                N/A     7/ 9   2/ 50
HILO             1800      77                N/A     8/ 9   2/ 90
KANEOHE BAY BUOY 1800      76                N/A     6/ 9   2/ 40
HANALEI KAUAI    1800      77                N/A     8/ 9   2/ 10
KAHULUI HARBOR   1800   74 77   60/  9/ 13 1017.0
HONOLULU HARBOR  1800   75 78   60/  5/ 11 1017.0
KILO NALU        NOT AVBL
HILO HARBOR      NOT AVBL
MOKUOLOE         1800      77              1017.2S
NAWILIWILI       1800   75 78   70/ 15/ 18 1017.4R
WHOTS BUOY       NOT AVBL
BUOY 51028       NOT AVBL
$$

......................KEY........................................
  SKY/WX - SKY CONDITIONS/PRESENT WEATHER
  TMP    - TEMPERATURE IN FAHRENHEIT
  DWPT   - DEWPOINT IN FAHRENHEIT
  RH     - RELATIVE HUMIDITY IN PERCENT
  WIND   - DIRECTION AND SPEED /MPH FOR ISLANDS...KTS FOR BUOYS/
  PRES   - MEAN SEA LEVEL PRESSURE IN INCHES OF HG
  VSB    - VISIBILITY IN MILES
  HX     - HEAT INDEX
  WCI    - WIND CHILL INDEX
  VRB    - VARIABLE WIND DIRECTION
  N/A    - NOT AVAILABLE


USA.gov is the U.S. government's official web portal to all federal, state and local government web resources and services.